Weather in Cairns

Australia     16°55′19″S   145°46′35″E
temp.,
°C
wind,
m/s
gust,
m/s
humid.,
%
clouds,
%
prec.,
mm/h
press.,
hPa
HPBL,
m
18 may, tue
tue1801:00+19sse268997 0.1 1017284
04:00+19se279587 0.2 1016463
07:00+19sse279355 0.1 1017343
10:00+23se487857 0.3 1018936
13:00+25se476882 0.3 10151237
16:00+22se488258 0.7 1014943
19:00+20se3997100 0.8 1016643
22:00+19se399695 1.3 1018653
19 may, wed
wed1901:00+19sse399572 0.3 1017566
04:00+19se399296 0.4 1016657
07:00+19sse388640 0.1 1017564
10:00+23se486635 0.1 10181179
13:00+25se496435 0.1 10151261
16:00+22sse4982100 0.3 1014904
19:00+20se399595 0.2 1016676
22:00+20se31194100 0.6 1017969
20 may, thu
thu2001:00+20se3109685 0.8 1015766
04:00+20se399790 1.7 1015684
07:00+19se399585 0.6 1016707
10:00+22se4108548 1.2 1017982
13:00+25ese496722 0.4 10151242
16:00+23se497414 0.6 10141050
19:00+19se289671 0.3 1016501
22:00+20se3109582 1.1 1017698
21 may, fri
fri2101:00+19se3109586 0.8 1016718
04:00+19se31196100 1.6 1015996
07:00+19se3119690 0.8 1016989
10:00+21se4118967 1.4 10171028
13:00+22se4108396 1.1 10151146
16:00+22se497181 1.4 10141173
19:00+19se388473 0.1 1015600
22:00+18se288994 0.4 1017407
22 may, sat
sat2201:00+18se279572 0.2 1015354
04:00+18se2896100 0.6 1014505
07:00+18se299554 0.5 1015509
10:00+22se388356 1.2 1016922
13:00+23ese387437 0.9 10141157
16:00+21se3784100 1.8 1013875
19:00+18se269733 1.2 1015215
22:00+18sse259843 1.5 1016147